Regional Weather Roundup
Issued by NWS New Orleans/Baton Rouge, LA

Home | Current Version | Previous Version | Text Only | Print | Product List | Glossary On
Versions: 1 2 3 4 5 6 7 8 9 10 11 12 13 14 15 16 17 18 19 20 21 22 23 24 25 26 27
000
ASUS44 KLIX 231111
RWRLIX
NEW ORLEANS REGIONAL WEATHER ROUNDUP
NATIONAL WEATHER SERVICE NEW ORLEANS LA
600 AM CDT SAT JUL 23 2016

NOTE: "FAIR" INDICATES FEW OR NO CLOUDS BELOW 12,000 FEET WITH NO
      SIGNIFICANT WEATHER AND/OR OBSTRUCTIONS TO VISIBILITY.
      SKY/WX - SKY CONDITION AND SIGNIFICANT WEATHER.
      TMP - AIR TEMPERATURE.     DP    - DEWPOINT TEMPERATURE.
      RH  - RELATIVE HUMIDITY.   PRES  - PRESSURE.
      HI  - HEAT INDEX.          WCI   - WIND CHILL INDEX.

*  THESE STATIONS ARE NOT NWS OR FAA STATIONS AND ARE NOT UNDER
   NWS QUALITY CONTROL.

LAZ038-040-048-061>063-065>067-069-231200-
SOUTHEAST LOUISIANA

CITY           SKY/WX    TMP DP  RH WIND       PRES   REMARKS
N.O. AUDUBON     N/A     78  77  97 MISG        N/A
N.O. INTL ARPT PTCLDY    80  76  87 CALM      29.99S
N.O. LAKEFRONT PTCLDY    83  74  74 SW3       30.00R
N.O. DOWNTOWN* NOT AVBL
RESERVE*         N/A     77  75  93 CALM      29.98S FOG
SLIDELL        CLEAR     75  74  96 CALM      29.99S
BATON ROUGE    CLEAR     75  72  90 CALM      29.99R
BOOTHVILLE     PTCLDY    80  76  87 CALM      30.00R
BELLE CHASSE   CLEAR     76  75  97 CALM      29.98F
BOGALUSA*      FOG       74  71  90 CALM      30.02S VSB 1/4
GALLIANO*      MOSUNNY   69  68  98 CALM      29.99R FOG
NEW ROADS*       N/A     73  72  98 CALM      29.99R FOG
GONZALES*        N/A     74  74 100 CALM      29.98S
HAMMOND*       CLEAR     73  72  94 CALM      29.99S FOG
HOUMA*         CLEAR     75  75  99 CALM      29.98S
PORT FOURCHON* MOSUNNY   82  77  83 CALM      29.99S

$$

MSZ070-080>082-231200-
SOUTHERN MISSISSIPPI

CITY           SKY/WX    TMP DP  RH WIND       PRES   REMARKS
MCCOMB         CLEAR     72  70  93 CALM      30.01S
GULFPORT       PTCLDY    74  71  91 N3        29.99S
BILOXI         CLEAR     74  73  96 NE5       29.99S
PASCAGOULA     CLEAR     73  73 100 CALM      30.00R

$$

COASTAL OBSERVATIONS
LAKE AND NEARSHORE STATIONS

STATION/POSITION TIME  TEMP    WIND        PRES    WAVE
                       AIR SEA DIR/SP/G            HT/PER
                 (UTC) (F)     (DEG/KT/KT) (MB)    (FT/S)
PASCAGOULA       1000   76      10/  5/  6 1015.1
WAVELAND YACHT   1000   78 85   50/  7/  7 1015.6
GRAND ISLE       1000   81 89  280/  3/  5 1015.5
SOUTHWEST PASS   1000          220/  3/  3   N/A
NEW CANAL        1000   81 87  220/  3/  5 1014.7
SHELL BEACH      1000   82 88  270/  5/  5 1015.5

OFFSHORE STATIONS

STATION/POSITION TIME  TEMP    WIND        PRES    WAVE
                       AIR SEA DIR/SP/G            HT/PER
                 (UTC) (F)     (DEG/KT/KT) (MB)    (FT/S)
64 S DAUPHIN ISL 1000   79 88   50/ 12/ 14 1015.5

$$





USA.gov is the U.S. government's official web portal to all federal, state and local government web resources and services.